User: anonymous   Login
Location: Copeville
(33.0796°N, 96.4155°W)
Time: 08:33:33
(UTC+00:00)
Language:

EO-79 - Orbit

View from above orbital plane
View from above orbital plane
View from above satellite
View from above satellite

Ground track
Ground track

The orbit data is extracted from the following two-line orbital elements,

1 40025U 14033R   24063.86140919  .00006870  00000-0  59181-3 0  9993
2 40025  98.0293  21.4095 0011159 141.1830 219.0194 14.97624183527106
Epoch (UTC): 03 March 2024 20:40:25
Eccentricity: 0.0011159
inclination: 98.0293°
perigee height: 566 km
apogee height: 582 km
right ascension of ascending node: 21.4095°
argument of perigee: 141.1830°
revolutions per day: 14.97624183
mean anomaly at epoch: 219.0194°
orbit number at epoch: 52710

The dashed part of the orbit path shows where the satellite is in the earth's shadow,  

DLR